Winter Haven, FL

1:07 AM EDT on May 24, 2017 (GMT -0400)
Winter Haven's-Gilbert

Weather History for KGIF - October, 2012

Change the Weather History Date:

Monday, October 8, 2012

  Actual Average Record
Temperature  
Mean Temperature 80 °F -  
Max Temperature 87 °F 86 °F 94 °F (1951)
Min Temperature 73 °F 66 °F 53 °F (1987)
Cooling Degree Days 15    
Growing Degree Days 30 (Base 50)    
Moisture  
Dew Point 72 °F    
Average Humidity 80    
Maximum Humidity 94    
Minimum Humidity 57    
Precipitation  
Precipitation 0.09 in - - ()
Sea Level Pressure  
Sea Level Pressure 29.99 in    
Wind  
Wind Speed 4 mph (East)    
Max Wind Speed 15 mph    
Max Gust Speed 22 mph    
Visibility 9 miles    
Events Rain , Thunderstorm    
Averages and records for this station are not official NWS values.
T = Trace of Precipitation, MM = Missing Value Source: NWS Daily Summary

Daily Weather History Graph

Daily Weather History Graph

Search for Another Location

Airport or City:

Trip Planner

Search our weather history database for the weather conditions in past years. The results will help you decide how hot, cold, wet, or windy it might be!

Date:

Astronomy

Oct. 08, 2012 Rise Set
Actual Time 7:23 AM EDT 7:04 PM EDT
Civil Twilight 7:00 AM EDT 7:28 PM EDT
Nautical Twilight 6:33 AM EDT 7:55 PM EDT
Astronomical Twilight 6:05 AM EDT 8:22 PM EDT
Moon 12:35 AM EDT (10/8) 2:22 PM EDT (10/8)
Length of Visible Light 12h 27m
Length of Day
11h 40m
Waning Gibbous, 46% of the Moon is Illuminated
Oct 8
Waning Gibbous
Oct 15
New
Oct 21
First Quarter
Oct 29
Full
Nov 6
Last Quarter

Hourly Weather History & Observations

Time (EDT) Temp. Heat Index Dew Point Humidity Pressure Visibility Wind Dir Wind Speed Gust Speed Precip Events Conditions
12:53 AM 73.9 °F - 71.1 °F 91% 30.00 in 10.0 mi NNW 3.5 mph - N/A   Clear
1:53 AM 73.9 °F - 72.0 °F 93% 29.98 in 10.0 mi Calm Calm - N/A   Clear
2:53 AM 73.9 °F - 71.1 °F 91% 29.97 in 10.0 mi Calm Calm - N/A   Clear
3:53 AM 73.9 °F - 72.0 °F 93% 29.96 in 10.0 mi Calm Calm - N/A   Clear
4:53 AM 73.9 °F - 71.1 °F 91% 29.97 in 10.0 mi North 3.5 mph - N/A   Clear
5:53 AM 73.9 °F - 71.1 °F 91% 29.99 in 10.0 mi Calm Calm - N/A   Clear
6:53 AM 73.9 °F - 72.0 °F 93% 30.00 in 10.0 mi NE 5.8 mph - N/A   Clear
7:53 AM 73.9 °F - 71.1 °F 91% 30.02 in 10.0 mi ENE 4.6 mph - N/A   Clear
8:53 AM 75.9 °F - 72.0 °F 87% 30.04 in 10.0 mi Calm Calm - N/A   Clear
9:53 AM 78.1 °F - 73.9 °F 87% 30.04 in 10.0 mi East 4.6 mph - N/A   Clear
10:53 AM 80.1 °F 84.2 °F 73.0 °F 79% 30.05 in 10.0 mi East 5.8 mph - N/A   Clear
11:53 AM 82.9 °F 89.4 °F 73.9 °F 74% 30.05 in 10.0 mi SE 5.8 mph - N/A   Scattered Clouds
12:06 PM 82.9 °F 89.4 °F 73.9 °F 74% 30.05 in 10.0 mi SE 6.9 mph - N/A   Mostly Cloudy
12:17 PM 82.9 °F 89.4 °F 73.9 °F 74% 30.04 in 10.0 mi SE 8.1 mph - N/A   Scattered Clouds
12:53 PM 84.9 °F 92.1 °F 73.9 °F 69% 30.02 in 10.0 mi SE 8.1 mph - N/A   Mostly Cloudy
1:14 PM 84.9 °F 91.4 °F 73.0 °F 67% 30.02 in 10.0 mi South 8.1 mph - N/A   Scattered Clouds
1:53 PM 84.9 °F 90.1 °F 71.1 °F 63% 29.99 in 10.0 mi South 8.1 mph - N/A   Clear
2:53 PM 86.0 °F 91.5 °F 71.1 °F 61% 29.96 in 10.0 mi SSE 9.2 mph - N/A   Mostly Cloudy
3:42 PM 86.0 °F 90.7 °F 70.0 °F 59% 29.96 in 10.0 mi South 5.8 mph - N/A Thunderstorm Partly Cloudy
3:53 PM 87.1 °F 92.0 °F 70.0 °F 57% 29.95 in 10.0 mi SSE 6.9 mph - N/A Thunderstorm Partly Cloudy
4:20 PM 87.1 °F 92.0 °F 70.0 °F 57% 29.95 in 10.0 mi Calm Calm - N/A Thunderstorm Thunderstorm
4:38 PM 87.1 °F 92.0 °F 70.0 °F 57% 29.96 in 10.0 mi Calm Calm - N/A Thunderstorm Clear
4:50 PM 82.4 °F 87.2 °F 71.6 °F 70% 29.96 in 10.0 mi North 10.4 mph - N/A   Partly Cloudy
4:53 PM 81.0 °F 85.2 °F 72.0 °F 74% 29.96 in 10.0 mi NNW 10.4 mph - N/A   Scattered Clouds
5:50 PM 80.6 °F 83.9 °F 69.8 °F 70% 29.97 in 9.0 mi NW 15.0 mph 20.7 mph N/A Thunderstorm Overcast
5:53 PM 78.1 °F - 71.1 °F 79% 29.97 in 7.0 mi NW 13.8 mph 21.9 mph 0.00 in Rain , Thunderstorm Light Rain
5:59 PM 75.9 °F - 72.0 °F 87% 29.98 in 2.0 mi WNW 9.2 mph 21.9 mph 0.06 in Rain Heavy Rain
6:02 PM 75.9 °F - 72.0 °F 87% 29.98 in 1.5 mi WNW 6.9 mph 19.6 mph 0.08 in Rain , Thunderstorm Heavy Thunderstorms and Rain
6:07 PM 75.9 °F - 72.0 °F 87% 29.98 in 2.0 mi West 9.2 mph 16.1 mph 0.09 in Rain , Thunderstorm Light Thunderstorms and Rain
6:27 PM 75.9 °F - 72.0 °F 87% 29.98 in 10.0 mi NNW 5.8 mph - 0.09 in Thunderstorm Mostly Cloudy
6:34 PM 75.9 °F - 71.1 °F 85% 29.98 in 10.0 mi NW 4.6 mph - 0.09 in   Mostly Cloudy
6:53 PM 77.0 °F - 71.1 °F 82% 29.98 in 10.0 mi NE 3.5 mph - 0.09 in Thunderstorm Mostly Cloudy
7:19 PM 75.9 °F - 71.1 °F 85% 29.99 in 10.0 mi Calm Calm - N/A   Overcast
7:53 PM 75.9 °F - 72.0 °F 87% 30.00 in 10.0 mi SE 3.5 mph - N/A   Overcast
10:53 PM 75.0 °F - 73.0 °F 94% 30.06 in 10.0 mi Calm Calm - N/A   Mostly Cloudy
11:53 PM 75.0 °F - 72.0 °F 90% 30.04 in 10.0 mi SSE 3.5 mph - N/A   Clear